{"data":{"norad_id":68771,"intl_designator":"2026-086F","name":"STARLINK-36759","alt_names":[],"object_type":"PAYLOAD","status":"ACTIVE","operator":null,"country":"US","launch_date":"2026-04-19","launch_site_code":"AFWTR","launch_vehicle":null,"mission":null,"orbit_class":"UNKNOWN","rcs_meters":null,"size_class":null,"mass_kg":null,"dimensions":null,"purposes":["comms"],"wikipedia_slug":null,"has_3d_model":false,"image_url":null,"decayed_at":null,"tle_current":{"epoch":"2026-05-25T04:00:03.998880Z","epoch_age_seconds":56787,"freshness":"FRESH","line1":"1 68771U 26086F   26145.16671295 -.01915471  00000+0 -22787-1 0  9992","line2":"2 68771  97.2847 182.0084 0001518  90.8200 216.5987 15.64223049  5958","mean_motion":15.64223049,"eccentricity":0.0001518,"inclination_deg":97.2847,"raan_deg":182.0084,"arg_perigee_deg":90.82,"mean_anomaly_deg":216.5987,"bstar":-0.022787,"rev_number":595,"period_min":92.058482383352,"perigee_km":374.44898584447,"apogee_km":376.49938219994,"semimajor_km":6753.6111840222,"source":"CELESTRAK","updated_at":"2026-05-25T13:38:22.035038Z"}}}